Regional Weather Roundup
Issued by NWS Wakefield, VA

Home | Current Version | Previous Version | Graphics & Text | Print | Product List | Glossary On
Versions: 1 2 3 4 5 6 7 8 9 10 11 12 13 14 15 16 17 18 19 20 21 22 23 24 25 26 27
000
ASUS41 KAKQ 251515
RWRAKQ

REGIONAL WEATHER ROUNDUP
NATIONAL WEATHER SERVICE WAKEFIELD VA
1100 AM EDT TUE APR 25 2017

Note: "fair" indicates few or no clouds below 12,000 feet with no
significant weather and/or obstructions to visibility. * = Denotes
station may not report precipitation (e.g., rain,snow,etc.),
thunder or fog.

VAZ042-051-052>054-056-251600-
NORTHERN VIRGINIA

CITY           SKY/WX    TMP DP  RH WIND       PRES   REMARKS
WASH NATIONAL  LGT RAIN  59  57  93 NE21G26   29.84F FOG
DULLES         LGT RAIN  57  54  89 NE13G22   29.84F
FORT BELVOIR   CLOUDY    57  55  94 VRB7      29.81F
QUANTICO       LGT RAIN  59  58  96 NE23G31   29.80F FOG
FREDERICKSBRG* RAIN      58  58 100 N9G18     29.75F
STAFFORD*      RAIN      57  57 100 NE15G21   29.82F
WARRENTON      DRIZZLE   56  53  89 N9        29.82S
CULPEPER*      DRIZZLE   56  56  97 N13       29.83S
MANASSAS*      LGT RAIN  58  56  93 NE15      29.82F
LEESBURG*      LGT RAIN  55  55 100 NE7       29.88F
WINCHESTER     CLOUDY    50  48  93 N6        29.88F FOG
FRONT ROYAL*   CLOUDY    50  50 100 N5        29.87F
LURAY*         RAIN      50  50 100 N13G20    29.85F
$$

VAZ048-049-060>072-079>083-251600-
CENTRAL AND SOUTH CENTRAL VIRGINIA

CITY           SKY/WX    TMP DP  RH WIND       PRES   REMARKS
RICHMOND       LGT RAIN  62  61  96 NE18      29.66F VSB 3/4
CHESTERFIELD*  CLOUDY    61  45  55 NE12G23   29.67S
PETERSBURG*    LGT RAIN  62  61  96 NE14      29.64S
HANOVER        LGT RAIN  60  59  96 N8        29.71S FOG
TAPPAHANNOCK*  DRIZZLE   62  62 100 NE12G21   29.71S
QUINTON*       CLOUDY    61  61 100 MISG      29.66S FOG
CHARLOTTSVILLE LGT RAIN  58  55  90 N18G26    29.77F
GORDONSVILLE*  CLOUDY    55  54  98 NE14G25   29.77F
ORANGE*        RAIN      54  52  94 NE14G21   29.79F
LOUISA*        RAIN      59  57  94 N12G21    29.74F
BUMPASS*       CLOUDY    56  56 100 N9G20     29.74S
FARMVILLE*     CLOUDY    58  58 100 N18G25    29.66S
CREWE*         CLOUDY    58  58 100 N10G16    29.65R
FORT PICKETT*  CLOUDY    60  57  88 N17G28    29.63S
CHASE CITY*    CLOUDY    57  55  94 N8G20     29.63S
CLARKSVILLE*   CLOUDY    55  55 100 N5        29.63F
SOUTH HILL*    CLOUDY    60  60 100 N9        29.65S
LAWRENCEVILLE* CLOUDY    62  61  97 NE8       29.60R
EMPORIA*       CLOUDY    64  61  88 E12G17    29.62R
$$

VAZ088>098-251600-
SOUTHEAST VIRGINIA

CITY           SKY/WX    TMP DP  RH WIND       PRES   REMARKS
NORFOLK        CLOUDY    72  63  73 SE16      29.63R
VIRGINIA BEACH PTSUNNY   69  60  73 SE13G22   29.64R
NORFOLK NAVAL  PTSUNNY   71  63  75 SE8       29.64R
WEST POINT*    CLOUDY    64  62  96 E15G22    29.67F
SALUDA*        CLOUDY    62  62 100 E15G24    29.68S
NEWPORT NEWS   CLOUDY    66  63  90 E6        29.63S FOG
LANGLEY AFB    PTSUNNY   68  65  90 S6        29.62S
FORT EUSTIS    CLOUDY    64  62  92 E9        29.61R
WILLIAMSBURG*  CLOUDY    64  64 100 CALM      29.65R
HR EXEC AP*    PTSUNNY   72  64  78 S12G20    29.61R
FRANKLIN*      PTSUNNY   68  61  76 S10       29.63R
US460-WAKEFLD  CLOUDY    65  64  97 SE6       29.62S FOG
$$

VAZ020-022-025-037-045-251600-
WEST CENTRAL AND SOUTHWEST VIRGINIA

CITY           SKY/WX    TMP DP  RH WIND       PRES   REMARKS
STAUNTON*      DRIZZLE   51  50  97 N13       29.84F
WAYNESBORO*    CLOUDY    49  49 100 N10       29.81F
HOT SPRINGS VA DRZL/FOG  41  41 100 E16G25    29.81F VSB<1/4
LYNCHBURG      LGT RAIN  56  55  97 N17G23    29.71F
DANVILLE       HVY RAIN  56  56 100 N7        29.69R FOG
SOUTH BOSTON*  CLOUDY    56  55  95 N8G16     29.66R
MARTINSVILLE   CLOUDY    57  55  94 N9        29.73S
ROANOKE        LGT RAIN  55  54  96 NE8       29.78F
BLACKSBURG     CLOUDY    55  53  92 NE5       29.80S
DUBLIN*        CLOUDY    57  54  87 N5        29.79S
MARION*        CLOUDY    57  55  91 CALM      29.82S
HILLSVILLE*    CLOUDY    52  52 100 N9        29.76F FOG
RICHLANDS*     CLOUDY    55  53  91 CALM      29.81S
WISE*          CLOUDY    54  54 100 CALM      29.83S
ABINGDON*      CLOUDY    61  55  81 NE3       29.80S
$$

MDZ021>025-VAZ099-100-251600-
SOUTHERN MARYLAND AND THE DELMARVA PENINSULA

CITY           SKY/WX    TMP DP  RH WIND       PRES   REMARKS
PATUXENT RIVER LGT RAIN  59  59 100 NE22G32   29.75F
BAY BRIDGE APT CLOUDY    57  55  94 NE9G18    29.85F FOG
LEONARDTOWN    CLOUDY    57  55  94 NE8       29.78S
DOVER          LGT RAIN  57  57 100 NE20G30   29.87F
GEORGETOWN     HVY RAIN  57 N/A N/A MISG      29.83F
EASTON         LGT RAIN  59  55  88 NE21G28   29.87F FOG
CAMBRIDGE      MOSUNNY   59  57  94 NE17      29.79F FOG
SALISBURY      LGT RAIN  60  60 100 E22G28    29.75F FOG
OCEAN CITY     LGT RAIN  57  56  96 E17G26    29.77F FOG
WALLOPS ISLAND CLOUDY    60  60 100 E21G30    29.72F
ACCOMACK*      CLOUDY    63  61  94 E9G26     29.69R FOG
$$

NCZ012>017-030>032-251600-
NORTH CENTRAL AND EASTERN NORTH CAROLINA

CITY           SKY/WX    TMP DP  RH WIND       PRES   REMARKS
ROANOKE RAPIDS CLOUDY    64  61  88 W6        29.61R
RALEIGH        PTSUNNY   60  58  92 N9        29.64R
ELIZABETH CITY PTSUNNY   70  62  76 S9        29.65R
AHOSKIE*         N/A     67  61  81 SE9       29.62S
EDENTON*       SUNNY     70  63  77 S8        29.65R
CURRITUCK*     SUNNY     70  62  75 SE6       29.66R
KILL DEVIL HLS PTSUNNY   71  61  71 CALM      29.65S
MANTEO         PTSUNNY   70  62  76 S5        29.66S
CAPE HATTERAS  CLOUDY    68  59  73 W10G18    29.64S
TARBORO*       NOT AVBL
GOLDSBORO      PTSUNNY   68  64  88 SW3       29.62S
WASHINGTON     PTSUNNY   68  61  78 W3        29.63S
GREENVILLE     PTSUNNY   70  61  73 CALM      29.66F
NEW BERN       CLOUDY    68  63  84 CALM      29.65S
WILMINGTON     MOSUNNY   69  61  75 SW8       29.63S
$$

VAZ048-251600-
ELSEWHERE

CITY           SKY/WX    TMP DP  RH WIND       PRES   REMARKS
HARRISBURG PA  CLOUDY    54  51  90 E14G23    29.96F
BALTIMORE      CLOUDY    57  55  93 NE20G29   29.87F
ANNAPOLIS      CLOUDY    58  55  90 NE12G23   29.85F
ANDREWS AFB    LGT RAIN  55  55 100 NE21G29   29.81F FOG
PHILADELPHIA   CLOUDY    55  52  89 NE17G26   29.98F
HENDERSON NC   DRIZZLE   55  54  95 W6        29.64F
GREENSBORO     DRIZZLE   57  56  96 N8        29.69R
ROCKY MOUNT    PTSUNNY   67  63  87 SW7       29.63R
$$

VAZ100-251600-
MARINE

STATION/POSITION TIME  TEMP    WIND        PRES    WAVE   SWELL
                       AIR SEA DIR/SP/G            HT/PER HT/PER
                 (UTC) (F)     (DEG/KT/KT) (MB)    (FT/S) (FT/S)
CAPE MAY NJ      1448   56 55   50/ 17/ 26 1011.1F
LEWES DE         1448   54 54   70/ 25/ 30 1010.4F
15NM E FENWICK I 1450   55 51   50/ 21/ 27 1009.3F   8/ 9   5/ 9
OCEAN-CITY-INLET 1448   56 54   80/ 12/ 21 1008.8F
WACHAPREAGUE VA  1448   60 57   60/ 18/ 22 1005.0R
THOMAS POINT MD  1500   56 56   30/ 22/ 24   N/A
GOOSES REEF MD   1500   58 52   40/ 21/ 25 1008.9    3/ 3
COVE POINT MD    1448   58      70/ 26/ 31 1008.5F
SOLOMONS ISLAND  1448   59 60   40/ 15/ 25   N/A
BISHOPS HEAD MD  1448   60 58   50/ 15/ 25 1007.2F
PINEY POINT MD   1448           70/ 17/ 21   N/A
POTOMAC MD       1500   59 59   60/ 21/ 27 1004.9    2/ 3
LEWISETTA VA     1448   60 61   70/ 21/ 31 1005.6F
RAPPAHANNOCK LGT 1448          110/ 24/ 31 1005.0R
STINGRAY PT      1500   62 61  120/ 19/ 25 1005.0    4/ 4
YORK RVR RNG VA  1448   62     130/ 17/ 21 1002.8R
YORKTOWN VA      1448   62 62  100/  9/ 12 1003.1R
JAMESTOWN VA     1500   63 67   80/  8/ 14   N/A     1
DOMINION TERM VA 1448   66     150/ 11/ 12 1003.0R
KIPTOPEKE VA     1448      60  140/ 19/ 24   N/A
CHES BAY BRIDGE  1448   67 61  180/ 13/ 17 1003.2R
CAPE HENRY VA    1448   61     140/ 17/ 25   N/A
WILLOUBY STN VA  1448   69     160/ 15/ 16 1003.9R
S CRANEY ISL VA  1448   68     140/ 12/ 13 1002.8R
CAPE HENRY BUOY  1442      55                N/A     9/10   3/11
1ST LANDING BUOY 1500   62 60              1003.6    5/ 5
CAPE CHARLES BUO 1451      56                N/A     8/11   5/11
64NM E OF VA BCH 1450   58 54  120/  6/  8 1006.3R  16/11  15/11
DUCK PIER NC     1448   63 61  130/  9/ 10 1003.7R
44100 DUCK FRF   1435      55                N/A    11/11   7/11
44056 DUCK FRF   1430      59                N/A    10/13   7/13
OREGON INLET NC  1442   71 63   CALM  /  1 1004.0S
HATTERAS NC      1448   66 67  270/ 11/ 15 1003.3R
DIAMOND SHLS NC  1450   75 78  140/ 14/ 17 1003.3R  10/11  10/11
CAPE LOOKOUT NC  1500   67      30/  6/ 10 1003.3R
$$




USA.gov is the U.S. government's official web portal to all federal, state and local government web resources and services.